Vertical_Velocity
-2 1 0 -1 2 -0 -2 -1 -3 -3 -4 2 -2 -1 -1 -0 -4 -1 -3 -2 3 2 6 2 1 7 -2 -1 2 5 5 6 6 0 1 -3 1 -4 -0 -5 5 1 -2
1 -2 0 -2 1 0 -3 -2 -1 -3 -3 0 -1 -0 -1 -4 0 -4 1 -0 0 2 5 3 -2 5 -4 23 5 1 5 14 0 -1 2 -0 -2 -3 -4 13 -0 -3 6
-5 -1 -2 -1 1 -1 -1 -1 2 -0 -1 -0 -1 -2 -0 0 -1 -1 -2 1 2 0 5 6 5 5 8 2 1 1 3 1 3 4 3 -0 -1 5 1 3 6 1 3
-1 -2 -3 -1 1 0 0 -0 1 2 -1 -2 -0 1 2 -1 -5 -4 -2 -3 2 3 2 3 8 6 2 7 2 -2 -1 2 -2 0 1 1 2 3 3 -3 -1 5 -1
-3 -2 -4 -3 1 0 -0 -1 -1 0 -2 -3 -4 -6 -3 -1 4 4 -1 -2 -3 0 3 2 4 4 18 1 9 -5 -3 -1 3 3 -3 -4 -3 -2 3 1 0 -2 -3
-3 -4 -2 -3 1 0 -0 -1 -2 0 -1 -2 -3 -1 -2 -5 -2 -1 1 -0 -4 -1 -2 2 1 2 -1 9 7 1 1 -1 -1 -2 -0 -2 -1 2 0 -0 1 2 -4
-0 -4 -2 -1 0 -0 -1 -2 -2 -1 -2 -3 -4 -4 -4 -4 -3 -2 -1 1 -0 -2 0 -2 2 3 1 -0 0 3 -1 0 1 -1 0 -1 -2 -2 -3 -1 2 2 -3
-0 -1 -2 -1 -1 -0 1 -1 -2 -2 0 0 -2 -3 -4 -5 -4 -2 -2 -1 -1 -1 0 1 -1 2 3 0 2 -1 0 -2 -3 1 2 2 -0 -5 0 1 1 2 -0
-4 -1 -1 -1 -1 -1 -2 -2 -1 -1 -1 -2 -2 -2 -1 -0 -2 -3 -0 -0 -1 -1 0 0 3 -1 1 3 4 2 2 0 1 1 -0 -2 -0 -1 -1 -3 -3 0 1
-3 -2 -1 -0 -0 -1 1 0 1 -1 -3 -2 -3 -4 -3 -2 -2 -1 -1 0 -0 0 2 1 1 3 1 0 3 3 4 1 3 1 2 -1 -4 -3 -1 -3 -0 -0 -0
-2 -3 -1 -1 -1 -1 0 -0 -0 0 -1 -4 -6 -7 -8 -3 0 -1 0 0 -0 0 -1 2 3 2 3 -0 1 1 1 3 2 0 -0 4 3 -1 -1 1 -1 -1 -1
-2 -2 -2 -1 -2 -0 1 -1 -2 -3 -2 -2 -4 -5 -5 -5 1 -0 -0 -0 1 -2 0 -0 1 2 2 3 2 0 0 3 1 4 2 1 0 5 1 1 2 3 1
-1 -1 -1 -1 -1 -0 -0 -3 -2 -1 -3 -4 -1 0 -1 -4 -2 -2 -3 1 1 -4 -3 -1 0 1 0 1 2 -0 -0 -1 1 -1 -0 2 1 2 1 4 3 0 -1
-1 -1 -1 -1 0 1 0 -2 -2 -3 -3 -3 -5 -4 -1 -1 -3 -0 6 2 -3 -0 -0 -0 0 -0 1 1 0 1 1 -0 0 0 0 1 -1 -1 2 2 1 0 1
-1 0 -1 -1 -0 -1 -2 1 1 0 -2 -3 -2 0 -2 1 1 2 1 4 3 0 -1 -1 -0 1 1 1 1 -0 0 0 -0 -1 -1 0 -1 -1 -0 -0 1 2 3
0 0 -2 -1 0 0 1 2 -1 -5 -4 -2 -2 -4 -4 -2 -1 0 -2 -1 0 0 -0 0 1 1 1 1 1 1 0 -0 1 1 0 0 0 -0 -1 -2 -0 0 -2
0 0 -1 -1 1 -1 0 0 -2 -0 -0 -3 -3 -3 -2 -2 -4 -2 -3 -1 -2 -2 1 2 2 1 1 0 -0 1 2 1 1 0 1 -0 -1 -0 0 -1 -3 -4 -3
0 1 -0 -1 0 -0 -1 0 -2 -0 -1 -1 -3 -3 -3 -3 -3 -3 -2 -2 8 4 2 1 1 1 2 2 1 1 1 1 1 1 1 1 1 1 -0 -1 -1 -1 -0
0 -0 -0 0 -0 -0 0 -3 -2 -3 -4 -6 -6 -5 -4 -1 2 -2 -1 6 1 1 1 -1 -0 0 1 1 1 1 1 1 1 1 0 0 0 1 1 1 1 0 -0
-0 -0 -1 1 -1 1 -1 -3 -2 -2 -3 -3 -4 -3 -4 -6 -3 4 3 -0 -2 -0 2 -0 0 2 1 1 1 1 1 1 2 1 1 1 2 1 1 1 1 1 0
-0 -1 0 -0 1 0 -2 -1 -0 -0 -0 -1 -1 1 1 -0 1 1 1 1 0 -1 1 -1 1 1 0 0 1 1 2 2 0 1 1 0 0 1 2 2 1 -0 -1
-1 -0 0 1 1 -1 -2 -0 -1 -0 -0 -2 -2 -2 -2 -1 -1 -1 -0 0 1 0 2 0 0 -0 -0 0 0 1 1 1 1 1 1 1 1 1 1 0 -1 -0 -0
-1 -0 1 1 -1 -2 -0 -0 -1 -1 -1 -1 -1 -2 -0 0 0 -1 -1 -1 -0 -0 -0 -0 -0 -0 -0 -1 -1 0 1 2 2 2 2 -0 0 1 0 1 1 -0 -0
-0 0 1 -1 -1 -1 1 0 -0 -1 -1 -1 -1 -1 -1 -1 -1 -1 -0 -1 -1 -0 -0 1 2 1 0 0 0 0 0 0 1 1 1 1 1 1 1 0 1 1 -0
0 1 -0 -1 -1 0 1 -0 -1 -0 -1 -1 -1 -1 -1 -2 -1 -0 0 -1 0 -1 -2 -1 0 1 1 1 1 0 -1 -0 0 1 0 1 1 1 1 1 1 1 1
2 -0 -1 -1 -0 1 0 -1 -1 -0 -1 -1 -1 -0 -0 0 0 -1 -1 -1 1 0 -1 -1 -1 -1 -0 -1 0 0 -0 -0 -0 -0 -0 -0 -0 0 0 -0 0 0 0
Height
5654 5643 5632 5623 5615 5606 5597 5588 5579 5569 5559 5548 5538 5527 5516 5508 5499 5488 5478 5468 5460 5455 5449 5443 5440 5438 5438 5439 5445 5454 5467 5483 5499 5511 5523 5535 5543 5552 5560 5569 5577 5584 5591
5646 5637 5626 5618 5610 5601 5592 5584 5575 5566 5557 5547 5536 5525 5515 5506 5498 5491 5481 5472 5462 5455 5450 5446 5442 5440 5440 5442 5446 5452 5464 5477 5491 5505 5516 5527 5535 5543 5551 5560 5568 5575 5580
5641 5631 5620 5612 5605 5596 5588 5580 5571 5562 5553 5544 5535 5525 5514 5504 5496 5488 5482 5474 5467 5458 5452 5448 5445 5443 5443 5445 5451 5456 5467 5477 5488 5500 5511 5520 5528 5536 5541 5550 5557 5564 5574
5636 5625 5615 5607 5600 5592 5584 5575 5567 5558 5549 5540 5532 5523 5513 5503 5494 5488 5481 5475 5468 5462 5456 5452 5449 5448 5448 5449 5454 5461 5466 5473 5483 5494 5504 5514 5521 5528 5535 5541 5547 5555 5563
5630 5619 5610 5602 5595 5587 5580 5571 5562 5554 5545 5536 5528 5520 5511 5502 5494 5486 5480 5474 5468 5463 5458 5454 5452 5451 5451 5454 5457 5463 5468 5473 5481 5489 5498 5507 5514 5520 5526 5532 5538 5546 5554
5624 5614 5605 5597 5590 5583 5576 5567 5559 5551 5542 5533 5525 5517 5508 5499 5490 5482 5475 5470 5466 5461 5458 5454 5451 5451 5452 5455 5457 5460 5465 5470 5476 5483 5491 5500 5507 5513 5518 5523 5530 5537 5544
5618 5609 5601 5593 5586 5579 5572 5564 5556 5547 5538 5529 5521 5512 5503 5494 5486 5477 5470 5464 5460 5457 5454 5453 5450 5448 5449 5451 5453 5457 5460 5465 5471 5477 5484 5491 5499 5504 5510 5515 5520 5526 5534
5613 5605 5597 5590 5583 5575 5568 5560 5552 5544 5535 5526 5517 5507 5497 5487 5478 5470 5462 5456 5452 5450 5449 5447 5447 5446 5445 5446 5448 5451 5455 5460 5464 5469 5476 5483 5489 5495 5500 5505 5510 5516 5523
5609 5601 5593 5587 5579 5572 5565 5557 5549 5540 5531 5521 5511 5501 5491 5480 5470 5461 5454 5449 5445 5442 5441 5440 5440 5441 5441 5442 5443 5445 5449 5452 5457 5462 5467 5473 5479 5485 5490 5496 5501 5507 5513
5604 5597 5590 5584 5576 5569 5562 5554 5546 5536 5525 5515 5503 5492 5481 5471 5461 5453 5446 5441 5438 5435 5434 5433 5433 5434 5435 5437 5438 5439 5442 5445 5449 5453 5458 5464 5470 5475 5481 5486 5492 5497 5504
5600 5593 5587 5580 5573 5565 5558 5550 5541 5531 5519 5508 5496 5484 5472 5462 5453 5445 5439 5434 5431 5429 5427 5426 5426 5427 5428 5430 5433 5435 5437 5439 5442 5447 5451 5456 5460 5466 5471 5477 5483 5489 5495
5596 5590 5584 5577 5569 5563 5555 5546 5537 5526 5514 5502 5489 5476 5464 5455 5448 5442 5436 5433 5429 5426 5424 5422 5421 5421 5422 5424 5426 5430 5433 5435 5437 5441 5444 5448 5453 5457 5463 5468 5474 5479 5485
5593 5587 5581 5574 5568 5560 5552 5543 5534 5522 5510 5498 5486 5473 5461 5452 5447 5442 5438 5435 5431 5427 5423 5420 5419 5418 5418 5420 5422 5425 5428 5430 5433 5435 5438 5442 5446 5449 5454 5459 5464 5470 5475
5590 5584 5578 5572 5566 5559 5550 5541 5531 5520 5509 5495 5482 5470 5461 5455 5450 5447 5444 5438 5432 5427 5424 5421 5418 5417 5416 5416 5418 5420 5422 5425 5428 5431 5434 5437 5440 5444 5447 5451 5456 5461 5467
5588 5582 5576 5570 5564 5557 5549 5540 5531 5520 5508 5494 5482 5472 5466 5462 5458 5453 5446 5441 5435 5430 5426 5422 5419 5417 5416 5415 5415 5416 5418 5420 5424 5426 5429 5432 5435 5439 5442 5446 5450 5455 5460
5585 5580 5575 5569 5563 5556 5549 5540 5530 5519 5507 5494 5482 5476 5471 5467 5461 5455 5449 5443 5437 5432 5428 5425 5422 5420 5418 5417 5415 5415 5415 5417 5418 5421 5424 5427 5430 5433 5436 5440 5444 5448 5453
5583 5578 5574 5568 5562 5556 5548 5540 5531 5520 5508 5495 5485 5480 5475 5471 5464 5459 5453 5447 5441 5436 5432 5429 5426 5424 5421 5419 5418 5417 5416 5416 5417 5417 5419 5421 5424 5427 5430 5433 5437 5440 5444
5581 5577 5572 5567 5562 5555 5548 5540 5532 5521 5509 5498 5489 5484 5479 5475 5469 5463 5457 5451 5447 5442 5437 5433 5430 5427 5425 5423 5422 5420 5419 5418 5417 5417 5417 5418 5419 5421 5423 5426 5429 5432 5435
5579 5575 5572 5567 5561 5556 5549 5542 5533 5523 5512 5502 5493 5487 5483 5478 5474 5468 5463 5458 5453 5448 5443 5438 5435 5432 5430 5427 5425 5424 5423 5421 5420 5420 5419 5419 5419 5419 5420 5421 5422 5423 5426
5578 5575 5572 5567 5562 5556 5550 5544 5535 5526 5516 5507 5498 5491 5486 5482 5477 5473 5469 5464 5458 5453 5448 5444 5440 5438 5435 5433 5430 5428 5426 5425 5423 5422 5422 5421 5421 5421 5421 5422 5422 5422 5422
5577 5575 5572 5568 5563 5557 5552 5546 5538 5529 5521 5513 5504 5496 5490 5484 5481 5477 5473 5469 5464 5459 5454 5449 5446 5443 5440 5438 5435 5433 5430 5426 5424 5423 5422 5422 5422 5422 5423 5423 5423 5422 5422
5577 5575 5572 5568 5563 5558 5553 5548 5540 5533 5525 5517 5509 5502 5494 5487 5481 5478 5475 5472 5468 5464 5459 5455 5451 5448 5445 5443 5440 5437 5433 5430 5427 5425 5424 5424 5424 5424 5425 5425 5424 5422 5421
5577 5575 5572 5569 5565 5560 5555 5549 5543 5536 5530 5522 5515 5508 5500 5493 5486 5480 5477 5474 5471 5468 5464 5460 5456 5453 5450 5447 5445 5442 5439 5435 5432 5430 5429 5428 5427 5427 5426 5426 5424 5423 5422
5577 5575 5572 5570 5566 5562 5557 5552 5546 5540 5534 5527 5521 5514 5507 5500 5493 5487 5481 5476 5473 5471 5468 5465 5462 5458 5455 5452 5449 5446 5444 5441 5438 5435 5433 5431 5430 5429 5428 5427 5426 5424 5423
5577 5575 5573 5571 5567 5564 5559 5554 5549 5543 5538 5532 5526 5520 5513 5506 5500 5494 5488 5482 5477 5473 5470 5468 5465 5462 5459 5456 5453 5451 5448 5445 5443 5440 5438 5435 5433 5431 5430 5428 5426 5425 5424
5576 5576 5574 5572 5569 5565 5561 5557 5552 5547 5541 5536 5530 5525 5519 5513 5507 5501 5495 5489 5484 5478 5473 5469 5467 5465 5462 5460 5457 5455 5452 5449 5447 5444 5442 5439 5437 5434 5432 5430 5428 5427 5425